Guymon, OK

3:18 PM CDT on March 23, 2017 (GMT -0500)
Guymon Municipal

Weather History for KGUY - June, 2013

Change the Weather History Date:

Monday, June 17, 2013

  Actual Average Record
Temperature  
Mean Temperature 74 °F 75 °F  
Max Temperature 85 °F 88 °F 101 °F (2016)
Min Temperature 62 °F 61 °F 51 °F (1999)
Degree Days  
Heating Degree Days 0 0  
Month to date heating degree days 0 6  
Since 1 June heating degree days 0 6  
Since 1 July heating degree days 4311 4455  
Cooling Degree Days 9 10  
Month to date cooling degree days 211 130  
Year to date cooling degree days 415 238  
Since 1 June cooling degree days 211 130  
Growing Degree Days 23 (Base 50)    
Moisture  
Dew Point 60 °F    
Average Humidity 68    
Maximum Humidity 93    
Minimum Humidity 43    
Precipitation  
Precipitation 0.00 in 0.10 in 0.09 in (2012)
Month to date precipitation 2.12 1.96  
Year to date precipitation 4.47 8.21  
Snow  
Snow 0.00 in - - ()
Month to date snowfall T  
Since 1 June snowfall T  
Since 1 July snowfall 22.3  
Snow Depth 0.00 in    
Sea Level Pressure  
Sea Level Pressure 29.95 in    
Wind  
Wind Speed 7 mph (NE)    
Max Wind Speed 15 mph    
Max Gust Speed 22 mph    
Visibility 10 miles    
Events Thunderstorm    
T = Trace of Precipitation, MM = Missing Value Source: NWS Daily Summary

Daily Weather History Graph

Daily Weather History Graph

Search for Another Location

Airport or City:

Trip Planner

Search our weather history database for the weather conditions in past years. The results will help you decide how hot, cold, wet, or windy it might be!

Date:

Astronomy

Jun. 17, 2013 Rise Set
Actual Time 6:26 AM CDT 9:07 PM CDT
Civil Twilight 5:56 AM CDT 9:37 PM CDT
Nautical Twilight 5:18 AM CDT 10:16 PM CDT
Astronomical Twilight 4:35 AM CDT 10:58 PM CDT
Moon 2:55 PM CDT (6/17) 1:55 AM CDT (6/17)
Length of Visible Light 15h 41m
Length of Day
14h 40m
First Quarter, 60% of the Moon is Illuminated
Jun 17
First Quarter
Jun 23
Full
Jun 29
Last Quarter
Jul 8
New
Jul 15
First Quarter

Hourly Weather History & Observations

Time (CDT) Temp. Heat Index Dew Point Humidity Pressure Visibility Wind Dir Wind Speed Gust Speed Precip Events Conditions
12:32 AM 66.2 °F - 57.2 °F 73% 30.04 in 10.0 mi NE 5.8 mph - N/A   Scattered Clouds
12:53 AM 64.9 °F - 59.0 °F 81% 29.90 in 10.0 mi Calm Calm - N/A   Clear
1:08 AM 64.4 °F - 59.0 °F 83% 30.02 in 10.0 mi NNW 4.6 mph - N/A Thunderstorm Partly Cloudy
1:23 AM 64.4 °F - 60.8 °F 88% 30.01 in 10.0 mi North 5.8 mph - N/A   Clear
1:53 AM 64.9 °F - 60.1 °F 84% 29.84 in 10.0 mi WSW 3.5 mph - N/A   Partly Cloudy
2:53 AM 64.0 °F - 60.1 °F 87% 29.89 in 10.0 mi NNE 5.8 mph - N/A   Clear
3:53 AM 64.0 °F - 60.1 °F 87% 29.91 in 10.0 mi NE 3.5 mph - N/A   Clear
4:53 AM 64.0 °F - 60.1 °F 87% 29.91 in 10.0 mi ENE 6.9 mph - N/A   Clear
5:53 AM 63.0 °F - 60.1 °F 90% 29.92 in 10.0 mi NNE 9.2 mph - N/A   Partly Cloudy
6:53 AM 62.1 °F - 60.1 °F 93% 29.95 in 9.0 mi Calm Calm - N/A   Clear
7:42 AM 64.4 °F - 60.8 °F 88% 30.09 in 8.0 mi NNW 3.5 mph - N/A   Partly Cloudy
7:53 AM 64.0 °F - 61.0 °F 90% 29.97 in 9.0 mi North 4.6 mph - N/A   Mostly Cloudy
8:53 AM 66.0 °F - 61.0 °F 84% 29.97 in 10.0 mi North 6.9 mph - N/A   Scattered Clouds
9:53 AM 70.0 °F - 60.1 °F 71% 29.99 in 10.0 mi North 5.8 mph - N/A   Clear
10:53 AM 73.9 °F - 61.0 °F 64% 29.98 in 10.0 mi NNW 4.6 mph - N/A   Clear
11:53 AM 77.0 °F - 60.1 °F 56% 29.98 in 10.0 mi NNE 4.6 mph - N/A   Clear
12:53 PM 80.1 °F 80.7 °F 59.0 °F 48% 29.97 in 10.0 mi ENE 6.9 mph - N/A   Clear
1:53 PM 82.0 °F 82.0 °F 57.9 °F 44% 29.95 in 10.0 mi ENE 9.2 mph 19.6 mph N/A   Clear
2:53 PM 82.9 °F 82.8 °F 59.0 °F 44% 29.93 in 10.0 mi East 10.4 mph - N/A   Clear
3:53 PM 84.0 °F 84.0 °F 60.1 °F 44% 29.91 in 10.0 mi SE 11.5 mph 21.9 mph N/A   Clear
4:53 PM 84.0 °F 83.8 °F 59.0 °F 43% 29.89 in 10.0 mi ESE 11.5 mph 19.6 mph N/A   Clear
5:53 PM 82.9 °F 82.8 °F 59.0 °F 44% 29.91 in 10.0 mi ESE 6.9 mph - N/A   Clear
6:53 PM 82.0 °F 82.1 °F 59.0 °F 45% 29.91 in 10.0 mi ESE 8.1 mph - N/A   Clear
7:53 PM 80.1 °F 80.7 °F 59.0 °F 48% 29.91 in 10.0 mi ESE 6.9 mph - N/A   Clear
8:53 PM 78.1 °F - 61.0 °F 56% 29.91 in 10.0 mi ESE 4.6 mph - N/A   Clear
9:53 PM 78.1 °F - 57.9 °F 50% 29.91 in 10.0 mi East 11.5 mph - N/A   Clear
10:53 PM 75.9 °F - 61.0 °F 60% 29.98 in 10.0 mi East 5.8 mph - N/A   Clear
11:53 PM 73.9 °F - 63.0 °F 68% 29.97 in 10.0 mi ENE 9.2 mph - N/A   Mostly Cloudy